Date String (YYYY-MM-DD hh:mm:ss) UTC,Instrument flags,Ambient pressure (hPa),Sample flow (lpm),Bypass flow (lpm),Sample temperature (°C),Ambient temperature (°C),ASC tube jacket temperature (°C),LED temperature (°C),Box temperature (°C),Sample RH (%),Span deviation,Mass concentration (μg/m³),Mass concentration (μg/m³),Mass concentration (μg/m³)
DateTimeUTC,F1_M11,P_M11,Q1_M11,Q2_M11,T1_M11,T2_M11,T3_M11,T4_M11,T5_M11,U1_M11,ZSPAN_M11,X0_M11,X2_M11,X1_M11
2023-05-28 07:00:00,,0830.1,5.01,0.00,30.1,28.4,00.0,38.5,31.6,22.5,0000.0,0007.73,0003.82,0002.81
2023-05-28 07:01:00,,0830.1,5.00,0.00,30.1,28.4,00.0,38.5,31.6,22.6,0000.0,0007.76,0003.81,0002.83
2023-05-28 07:02:00,,0830.1,4.99,0.00,30.1,28.4,00.0,38.5,31.6,22.5,0000.0,0007.66,0003.78,0002.82
2023-05-28 07:03:00,,0830.1,5.00,0.00,30.1,28.4,00.0,38.5,31.6,22.5,0000.0,0007.76,0003.79,0002.81
2023-05-28 07:04:00,,0830.1,4.99,0.00,30.1,28.4,00.0,38.5,31.6,22.5,0000.0,0007.65,0003.77,0002.78
2023-05-28 07:05:00,,0830.1,5.00,0.00,30.1,28.4,00.0,38.5,31.6,22.5,0000.0,0007.60,0003.77,0002.78
2023-05-28 07:06:00,,0830.1,5.00,0.00,30.1,28.4,00.0,38.5,31.6,22.5,0000.0,0007.48,0003.73,0002.76
2023-05-28 07:07:00,,0830.1,5.01,0.00,30.1,28.4,00.0,38.5,31.6,22.5,0000.0,0007.32,0003.68,0002.75
2023-05-28 07:08:00,,0830.1,5.00,0.00,30.1,28.4,00.0,38.5,31.6,22.5,0000.0,0007.33,0003.70,0002.75
2023-05-28 07:09:00,,0830.1,4.99,0.00,30.1,28.4,00.0,38.5,31.6,22.4,0000.0,0007.45,0003.68,0002.74
2023-05-28 07:10:00,,0830.1,5.00,0.00,30.1,28.4,00.0,38.5,31.6,22.4,0000.0,0007.51,0003.63,0002.72
2023-05-28 07:11:00,,0830.1,4.99,0.00,30.1,28.4,00.0,38.5,31.6,22.4,0000.0,0007.55,0003.64,0002.72
2023-05-28 07:12:00,,0830.1,5.00,0.00,30.1,28.4,00.0,38.5,31.6,22.4,0000.0,0007.54,0003.64,0002.69
2023-05-28 07:13:00,,0830.1,5.01,0.00,30.1,28.4,00.0,38.5,31.6,22.4,0000.0,0007.67,0003.67,0002.69
2023-05-28 07:14:00,,0830.1,5.01,0.00,30.1,28.4,00.0,38.5,31.6,22.4,0000.0,0007.62,0003.66,0002.70
2023-05-28 07:15:00,,0830.1,5.00,0.00,30.1,28.4,00.0,38.5,31.6,22.4,0000.0,0007.54,0003.64,0002.69
2023-05-28 07:16:00,,0830.1,5.00,0.00,30.1,28.4,00.0,38.5,31.6,22.4,0000.0,0007.50,0003.62,0002.68
2023-05-28 07:17:00,,0830.1,4.99,0.00,30.1,28.4,00.0,38.5,31.6,22.4,0000.0,0007.48,0003.60,0002.68
2023-05-28 07:18:00,,0830.1,5.00,0.00,30.1,28.4,00.0,38.5,31.6,22.4,0000.0,0007.41,0003.58,0002.67
2023-05-28 07:19:00,,0830.1,5.00,0.00,30.1,28.4,00.0,38.5,31.6,22.4,0000.0,0007.42,0003.58,0002.65
2023-05-28 07:20:00,,0830.1,5.01,0.00,30.1,28.4,00.0,38.5,31.6,22.4,0000.0,0007.27,0003.58,0002.65
2023-05-28 07:21:00,,0830.0,5.01,0.00,30.1,28.4,00.0,38.5,31.6,22.4,0000.0,0007.02,0003.58,0002.64
2023-05-28 07:22:00,,0830.1,5.01,0.00,30.1,28.4,00.0,38.5,31.6,22.4,0000.0,0006.97,0003.56,0002.63
2023-05-28 07:23:00,,0830.0,4.99,0.00,30.1,28.4,00.0,38.5,31.6,22.5,0000.0,0007.02,0003.58,0002.64
2023-05-28 07:24:00,,0830.0,5.00,0.00,30.1,28.4,00.0,38.5,31.6,22.5,0000.0,0007.14,0003.59,0002.64
2023-05-28 07:25:00,,0830.0,4.99,0.00,30.1,28.4,00.0,38.5,31.6,22.5,0000.0,0007.25,0003.60,0002.62
2023-05-28 07:26:00,,0830.0,5.01,0.00,30.1,28.4,00.0,38.5,31.6,22.5,0000.0,0007.43,0003.65,0002.64
2023-05-28 07:27:00,,0830.0,5.01,0.00,30.1,28.4,00.0,38.5,31.6,22.5,0000.0,0007.54,0003.71,0002.67
2023-05-28 07:28:00,,0830.0,5.00,0.00,30.1,28.4,00.0,38.5,31.6,22.5,0000.0,0007.55,0003.71,0002.67
2023-05-28 07:29:00,,0830.0,5.00,0.00,30.1,28.4,00.0,38.5,31.6,22.5,0000.0,0007.69,0003.75,0002.68
2023-05-28 07:30:00,,0830.0,5.00,0.00,30.1,28.4,00.0,38.5,31.6,22.5,0000.0,0007.67,0003.72,0002.66
2023-05-28 07:31:00,,0830.0,4.99,0.00,30.1,28.4,00.0,38.5,31.6,22.5,0000.0,0007.67,0003.73,0002.66
2023-05-28 07:32:00,,0830.0,5.00,0.00,30.1,28.4,00.0,38.5,31.6,22.5,0000.0,0007.74,0003.75,0002.67
2023-05-28 07:33:00,,0830.0,5.00,0.00,30.1,28.4,00.0,38.5,31.6,22.5,0000.0,0007.76,0003.77,0002.70
2023-05-28 07:34:00,,0830.0,5.01,0.00,30.1,28.4,00.0,38.5,31.6,22.4,0000.0,0007.74,0003.75,0002.69
2023-05-28 07:35:00,,0830.0,5.01,0.00,30.1,28.4,00.0,38.5,31.6,22.3,0000.0,0007.62,0003.74,0002.70
2023-05-28 07:36:00,,0829.9,5.00,0.00,30.1,28.4,00.0,38.5,31.6,22.2,0000.0,0007.45,0003.70,0002.70
2023-05-28 07:37:00,,0829.9,5.00,0.00,30.1,28.4,00.0,38.5,31.6,22.2,0000.0,0007.42,0003.69,0002.70
2023-05-28 07:38:00,,0829.9,5.00,0.00,30.1,28.4,00.0,38.5,31.6,22.2,0000.0,0007.47,0003.68,0002.69
2023-05-28 07:39:00,,0829.9,5.01,0.00,30.1,28.4,00.0,38.5,31.6,22.2,0000.0,0007.90,0003.72,0002.69
2023-05-28 07:40:00,,0829.9,4.99,0.00,30.1,28.4,00.0,38.4,31.6,22.2,0000.0,0008.59,0003.73,0002.70
2023-05-28 07:41:00,,0829.9,5.00,0.00,30.1,28.4,00.0,38.4,31.6,22.2,0000.0,0008.47,0003.74,0002.73
2023-05-28 07:42:00,,0829.9,5.01,0.00,30.1,28.4,00.0,38.4,31.6,22.1,0000.0,0008.46,0003.75,0002.75
2023-05-28 07:43:00,,0829.8,5.01,0.00,30.1,28.4,00.0,38.4,31.6,22.1,0000.0,0008.39,0003.72,0002.74
2023-05-28 07:44:00,,0829.8,5.00,0.00,30.1,28.3,00.0,38.4,31.6,22.0,0000.0,0008.38,0003.73,0002.75
2023-05-28 07:45:00,,0829.8,5.00,0.00,30.0,28.3,00.0,38.4,31.6,22.0,0000.0,0008.34,0003.72,0002.76
2023-05-28 07:46:00,,0829.8,4.99,0.00,30.0,28.3,00.0,38.4,31.6,22.0,0000.0,0008.32,0003.71,0002.75
2023-05-28 07:47:00,,0829.8,5.00,0.00,30.0,28.3,00.0,38.4,31.6,22.0,0000.0,0008.28,0003.70,0002.75
2023-05-28 07:48:00,,0829.8,5.00,0.00,30.0,28.3,00.0,38.4,31.6,22.0,0000.0,0008.22,0003.68,0002.76
2023-05-28 07:49:00,,0829.8,5.00,0.00,30.0,28.3,00.0,38.4,31.5,22.0,0000.0,0008.20,0003.67,0002.76
2023-05-28 07:50:00,,0829.8,5.00,0.00,30.0,28.3,00.0,38.4,31.5,22.0,0000.0,0008.10,0003.68,0002.77
2023-05-28 07:51:00,,0829.8,5.00,0.00,30.0,28.3,00.0,38.4,31.5,22.0,0000.0,0007.37,0003.68,0002.78
2023-05-28 07:52:00,,0829.7,5.00,0.00,30.0,28.3,00.0,38.4,31.5,21.9,0000.0,0006.93,0003.64,0002.78
2023-05-28 07:53:00,,0829.7,5.01,0.00,30.0,28.2,00.0,38.4,31.5,21.9,0000.0,0006.86,0003.61,0002.77
2023-05-28 07:54:00,,0829.7,5.01,0.00,30.0,28.2,00.0,38.4,31.5,22.0,0000.0,0007.27,0003.62,0002.78
2023-05-28 07:55:00,,0829.7,5.00,0.00,30.0,28.2,00.0,38.4,31.5,22.0,0000.0,0007.31,0003.66,0002.80
2023-05-28 07:56:00,,0829.7,5.01,0.00,30.0,28.2,00.0,38.4,31.5,22.0,0000.0,0007.32,0003.67,0002.81
2023-05-28 07:57:00,,0829.7,4.99,0.00,30.0,28.2,00.0,38.4,31.5,22.0,0000.0,0007.65,0003.71,0002.84
2023-05-28 07:58:00,,0829.8,4.99,0.00,29.9,28.2,00.0,38.4,31.4,22.2,0000.0,0007.99,0003.71,0002.85
2023-05-28 07:59:00,,0829.7,4.99,0.00,29.9,28.1,00.0,38.4,31.4,22.2,0000.0,0007.92,0003.68,0002.84
